Regional Weather Roundup
Issued by NWS

Home | Current Version | Previous Version | Graphics & Text | Print | Product List | Glossary On
Versions: 1 2 3 4 5 6 7 8 9 10 11 12 13 14 15 16 17 18 19 20 21 22 23 24 25 26 27
000
ASUS45 KCYS 081610
RWRWY

WYOMING REGIONAL WEATHER ROUNDUP
NATIONAL WEATHER SERVICE CHEYENNE WY
900 AM MST THU DEC 08 2016

NOTE:  "FAIR" INDICATES FEW OR NO CLOUDS BELOW 12,000 FEET
WITH NO SIGNIFICANT WEATHER AND/OR OBSTRUCTIONS TO VISIBILITY.

WYZ001-081700-
YELLOWSTONE NATIONAL PARK

CITY           SKY/WX    TMP DP  RH WIND       PRES   REMARKS
LK YELLOWSTONE   N/A    -14 -18  82 W3        30.14F
W YELLOWSTONE  NOT AVBL

$$
WYZ002>013-054>058-071-098>099-081700-
NORTHERN WYOMING

CITY           SKY/WX    TMP DP  RH WIND       PRES   REMARKS
JACKSON        FAIR     -18 -22  83 N6        30.28S WCI -33
CODY           FAIR      -4  -9  79 S6        30.34F WCI -16
GREYBULL       FAIR      -4  -9  79 SE5       30.47S WCI -15
WORLAND        FAIR      -3  -8  79 CALM      30.43F
SHERIDAN       FAIR      -6 -13  71 CALM      30.47S
BUFFALO        FAIR       1 -11  57 S6        30.38S WCI -10
GILLETTE       FAIR      -7 -12  79 CALM      30.45F
HULETT         FAIR      -6 -13  71 S6        30.48S WCI -18
NEWCASTLE      FAIR      -6 -13  71 CALM      30.51R

$$
WYZ014>020-022>026-101>103-081700-
CENTRAL WYOMING

CITY           SKY/WX    TMP DP  RH WIND       PRES   REMARKS
BIG PINEY      FAIR      -9 -15  75 E3        30.24F
PINEDALE       FAIR     -15 -20  76 NW9       30.24S WCI -33
DUBOIS         FAIR      -4 -13  65 W17       30.14F WCI -26
LANDER         FAIR       0  -7  72 CALM      30.30S
RIVERTON       FAIR       1  -5  75 CALM      30.32S
CASPER         FAIR     -24 -25  95 CALM      30.37S
DOUGLAS        FAIR     -11 -20  64 CALM      30.44S

$$
WYZ021-027>030-104>119-081700-
SOUTHERN WYOMING

CITY           SKY/WX    TMP DP  RH WIND       PRES   REMARKS
EVANSTON       CLOUDY     3  -4  72 E10       30.16F WCI -12
KEMMERER         N/A     -4  -9  77 N5        30.18S WCI -15
FORT BRIDGER   CLOUDY    -2  -5  87 NE3       30.24S
ROCK SPRINGS   FAIR      -6 -10  83 CALM      30.24S
DIXON          FAIR      -1  -9  67 SE5       30.31S WCI -11
RAWLINS        FAIR      -5  -9  83 CALM      30.26S
SARATOGA       FAIR       1  -8  66 S8        30.26R WCI -12
LARAMIE        FAIR      -5 -10  79 S5        30.22S WCI -16
CHEYENNE       FAIR       0  -7  72 SW6       30.32R WCI -12
TORRINGTON     FAIR      -5 -10  79 CALM      30.50S
PINE BLUFFS    FAIR      -9 -15  77 MISG      30.44R

$$




USA.gov is the U.S. government's official web portal to all federal, state and local government web resources and services.